TIME,DELAY(SENSOR),PRES,OXYGEN,RAWTEMP,T(OPTODE),TCPHASE,FLUOR,BETA(BETA700),BETA(BETA412),BETA(BETA440),CDOM,C(CSC),ED(ED412.20),ED(ED444.00),ED(ED489.60),ED(ED554.30),LU(LU412.10),LU(LU443.90),LU(LU489.70),LU(LU554.70),COMP,TILTX,TILTY,CHECK
1335931917,5809,875.9799804687500000,40.5110702514648440,569.2218017578125000,4.1997408866882320,55.5318794250488300,54,101,100,78,83,15482,0,0,0,0,2147129088,2147773760,2147572160,2147573120,451,2,13,47916
1335935513,5808,960.4000244140625000,45.1209983825683600,573.5087890625000000,4.0664710998535160,54.9100990295410160,55,100,102,80,83,15483,0,0,0,0,2147128054,2147776173,2147576356,2147574710,1038,2,13,24794
1335939113,5808,979.6500244140625000,46.0172500610351560,575.7449951171875000,3.9968910217285156,54.8086090087890600,55,101,100,78,83,15479,0,0,0,0,2147126025,2147771986,2147574061,2147573659,528,2,13,34892
1335942713,5809,975.2800292968750000,45.6554794311523440,576.4105224609375000,3.9761750698089600,54.8698501586914060,54,100,100,78,83,15478,0,0,0,0,2147128795,2147774363,2147575579,2147573357,381,2,13,50459
1335946313,5811,978.9600219726562000,44.6362991333007800,577.6671142578125000,3.9370501041412354,55.0278282165527340,54,98,101,78,84,15481,0,0,0,0,2147125979,2147778194,2147573065,2147570889,20,2,13,62996
1335949913,5810,985.6199951171875000,45.0322608947753900,577.9589843750000000,3.9279611110687256,54.9756202697753900,55,101,101,80,84,15447,0,0,0,0,2147127661,2147777124,2147572882,2147571328,289,2,13,64842
1335953513,5810,985.3400268554688000,44.9019699096679700,577.8391113281250000,3.9316959381103516,54.9938507080078100,55,99,102,79,83,15465,0,0,0,0,2147127762,2147771328,2147571401,2147572534,175,2,13,54932
1335957113,5810,987.2899780273438000,44.6624298095703100,577.6796264648438000,3.9366610050201416,55.0255699157714840,55,100,101,77,83,15463,0,0,0,0,2147124004,2147770934,2147573540,2147574244,119,2,13,48317
1335960713,5811,978.2000122070312000,44.7840309143066400,578.5233764648438000,3.9103789329528810,55.0193786621093750,55,99,103,78,83,15462,0,0,0,0,2147125851,2147770715,2147571529,2147571913,3322,2,13,40652
1335964313,5812,986.6599731445312000,45.4263305664062500,578.7880859375000000,3.9021360874176025,54.9282798767089840,54,98,102,77,83,15462,0,0,0,0,2147124772,2147776758,2147577819,2147572434,3200,2,13,59348
1335967913,5809,986.0399780273438000,44.7853317260742200,578.1267700195312000,3.9227349758148193,55.0114784240722660,56,99,101,78,82,15464,0,0,0,0,2147126930,2147769225,2147577362,2147572022,603,2,13,64502
1335971513,5809,991.8499755859375000,45.4542007446289060,578.8704833984375000,3.8995699882507324,54.9305992126464840,55,99,100,78,84,15460,0,0,0,0,2147128795,2147777225,2147573220,2147570788,120,2,13,19731
1335975113,5810,989.5800170898438000,44.7492103576660160,578.7625122070312000,3.9029328823089600,55.0235404968261700,55,99,102,78,82,15461,0,0,0,0,2147128338,2147771236,2147577755,2147572498,104,2,13,18377
1335978713,5810,992.7299804687500000,44.5072708129882800,577.5568237304688000,3.9404869079589844,55.0467796325683600,55,99,102,79,84,15459,0,0,0,0,2147128384,2147772726,2147571776,2147570432,223,2,13,41789
1335982313,5811,995.0900268554688000,44.1111488342285160,577.2637939453125000,3.9496099948883057,55.0957489013671900,55,99,101,78,83,15456,0,0,0,0,2147128978,2147776173,2147577691,2147570249,84,2,13,48064
1335985913,5809,996.8200073242188000,44.8306198120117200,577.5678710937500000,3.9401419162750244,54.9974403381347660,54,99,101,77,83,15460,0,0,0,0,2147129078,2147774454,2147576630,2147571282,3491,2,13,42029
1335989513,5810,991.5700073242188000,43.5647583007812500,577.1666259765625000,3.9526350498199463,55.1690406799316400,55,100,100,79,85,15460,0,0,0,0,2147129088,2147780233,2147575744,2147573193,434,2,13,34452
1335993113,5810,991.1300048828125000,43.9836692810058600,577.5645751953125000,3.9402410984039307,55.1167297363281250,54,99,102,79,84,15456,0,0,0,0,2147129956,2147771410,2147574098,2147573376,305,2,13,58169
1335996713,5812,996.6199951171875000,44.0051307678222660,577.9749145507812000,3.9274671077728270,55.1174392700195300,54,99,101,79,82,15457,0,0,0,0,2147131913,2147771565,2147581129,2147570532,90,2,13,46427
1336000313,5809,995.6199951171875000,44.0455207824707000,578.2805175781250000,3.9179461002349854,55.1157112121582000,54,98,100,79,83,15455,0,0,0,0,2147129536,2147773330,2147573174,2147575067,3416,2,13,23943
1336003913,5809,993.1300048828125000,44.3564796447753900,578.5535278320312000,3.9094429016113280,55.0755310058593750,55,101,101,78,85,15453,0,0,0,0,2147130020,2147772544,2147578093,2147574345,3330,2,13,8450
1336007513,5812,992.7199707031250000,47.1850700378418000,579.5994873046875000,3.8768560886383057,54.6906204223632800,54,98,103,79,84,15450,0,0,0,0,2147128685,2147768118,2147575625,2147571602,190,2,13,32935
1336011113,5810,995.5599975585938000,46.6915893554687500,579.1375122070312000,3.8912510871887207,54.7522201538085940,54,99,103,78,84,15450,0,0,0,0,2147126802,2147772717,2147575149,2147572342,3562,2,13,64788
1336014713,5808,994.1799926757812000,45.4522209167480500,578.7147827148438000,3.9044170379638670,54.9213600158691400,55,98,102,78,84,15451,0,0,0,0,2147126829,2147775442,2147579008,2147575478,637,2,13,15233
1336018313,5811,992.2399902343750000,46.5615501403808600,579.9926757812500000,3.8646070957183840,54.7840690612793000,55,100,100,77,83,15444,0,0,0,0,2147130240,2147769627,2147576768,2147573988,391,2,13,34128
1336021913,5809,989.5100097656250000,46.5602607727050800,580.0748901367188000,3.8620429039001465,54.7829704284668000,55,100,102,78,84,15426,0,0,0,0,2147128557,2147769243,2147576420,2147568850,694,2,13,2759
1336025513,5808,998.8699951171875000,47.3018684387207000,579.5925903320312000,3.8770730495452880,54.6733703613281250,56,100,103,78,84,15438,0,0,0,0,2147128502,2147775817,2147579017,2147570148,586,2,13,2578
1336029113,5809,1001.9500122070312000,45.8187713623046900,578.5211791992188000,3.9104480743408203,54.8696594238281250,54,102,101,78,84,15438,0,0,0,0,2147126674,2147774052,2147578523,2147572379,344,2,13,54013
1336032713,5811,1004.9600219726562000,43.5157699584960940,577.7208862304688000,3.9353768825531006,55.1830101013183600,55,99,101,78,85,15439,0,0,0,0,2147128484,2147771373,2147574884,2147568704,2578,2,13,56476
1336036313,5811,1004.3499755859375000,42.9592704772949200,577.8082885742188000,3.9326519966125490,55.2645606994628900,55,99,102,77,83,15438,0,0,0,0,2147128941,2147771931,2147574025,2147569508,138,2,13,8925
1336039913,5808,1002.5900268554688000,44.3315811157226560,577.7540283203125000,3.9343450069427490,55.0700187683105500,55,98,105,78,83,15417,0,0,0,0,2147125037,2147774089,2147578523,2147572397,205,2,13,8841
1336043513,5811,1001.7899780273438000,44.4911193847656250,577.8389282226562000,3.9316999912261963,55.0505294799804700,54,97,101,78,84,15420,0,0,0,0,2147125522,2147770861,2147579876,2147571474,186,2,13,36960
1336047113,5809,994.5300292968750000,44.1214599609375000,578.1757812500000000,3.9212059974670410,55.1012802124023440,54,99,103,79,85,15419,0,0,0,0,2147125083,2147770688,2147574372,2147573110,401,2,13,11032
1336050713,5808,1000.3699951171875000,44.2593688964843750,578.0106811523438000,3.9263479709625244,55.0880393981933600,55,100,102,78,84,15419,0,0,0,0,2147129792,2147772425,2147575497,2147572260,243,2,13,49299
1336054313,5809,996.9000244140625000,44.8642501831054700,578.5712280273438000,3.9088919162750244,55.0102310180664060,55,99,103,78,84,15419,0,0,0,0,2147128768,2147775506,2147573915,2147570468,2229,2,13,44932
1336057913,5809,991.5599975585938000,45.0152397155761700,579.3010253906250000,3.8861579895019530,54.9940605163574200,55,97,101,78,83,15421,0,0,0,0,2147127250,2147772397,2147572662,2147571702,109,2,13,16669
1336061513,5811,997.7199707031250000,45.5209388732910160,579.3942260742188000,3.8832530975341797,54.9205894470214840,55,100,102,78,83,15421,0,0,0,0,2147126710,2147772242,2147576320,2147573677,3270,2,13,24116
1336065113,5809,1004.8300170898438000,44.7191810607910160,578.1342773437500000,3.9225010871887207,55.0220909118652340,56,98,100,79,83,15415,0,0,0,0,2147126454,2147774848,2147576521,2147570742,205,2,13,36705
1336068713,5810,1007.0999755859375000,44.4169807434082000,579.1027832031250000,3.8923339843750000,55.0714988708496100,55,100,102,79,85,15418,0,0,0,0,2147127890,2147775040,2147577435,2147570752,339,2,13,58739
1336072313,5812,998.8599853515625000,44.0434799194335940,578.3433227539062000,3.9159929752349854,55.1178092956543000,55,98,101,79,85,15417,0,0,0,0,2147127122,2147775305,2147576411,2147576128,3495,2,13,60656
1336074655,5812,998.2399902343750000,43.8116416931152340,579.2399291992188000,3.8880620002746580,55.1575508117675800,55,101,101,78,83,15417,0,0,0,0,2147125504,2147777261,2147584393,2147572297,494,2,13,53033
